BRX1642 EDDH-EKCH

Flight info

Callsign BRX1642
Flight time 0h 42m
Altitude 17000
Route LUGEG3G/33 LUGEG P605 GESKA Z711 MONAK MONA5C
Aircraft AT76/M-SDFGIRY/S

Departure

Time 2026-05-04 15:53
Airport Hamburg Helmut Schmidt Airport (EDDH)

Arrival

Time 2026-05-04 16:36
Airport Copenhagen Kastrup Airport (EKCH)
Time Latitude Longitude Altitude Speed Heading
2026-05-04 15:39 53.62650 10.00375 48 ft 0 kts 62°
2026-05-04 15:45 53.62648 10.00369 48 ft 3 kts 61°
2026-05-04 15:45 53.62634 10.00331 48 ft 4 kts 51°
2026-05-04 15:45 53.62616 10.00301 48 ft 4 kts 20°
2026-05-04 15:45 53.62598 10.00299 48 ft 1 kts 333°
2026-05-04 15:46 53.62594 10.00302 48 ft 0 kts 333°
2026-05-04 15:48 53.62597 10.00299 48 ft 2 kts 333°
2026-05-04 15:48 53.62654 10.00251 48 ft 6 kts 333°
2026-05-04 15:49 53.62692 10.00218 48 ft 7 kts 333°
2026-05-04 15:49 53.62737 10.00178 48 ft 8 kts 330°
2026-05-04 15:49 53.62786 10.00134 48 ft 8 kts 332°
2026-05-04 15:49 53.62839 10.00087 48 ft 9 kts 332°
2026-05-04 15:50 53.62899 10.00047 48 ft 9 kts 343°
2026-05-04 15:50 53.62913 9.99976 48 ft 5 kts 249°
2026-05-04 15:50 53.62898 9.99935 47 ft 1 kts 251°
2026-05-04 15:50 53.62892 9.99909 48 ft 0 kts 245°
2026-05-04 15:52 53.62861 9.99801 48 ft 10 kts 244°
2026-05-04 15:52 53.62867 9.99744 49 ft 6 kts 323°
2026-05-04 15:52 53.63030 9.99588 48 ft 56 kts 333°
2026-05-04 15:53 53.63546 9.99143 47 ft 110 kts 330°
2026-05-04 15:53 53.64294 9.98419 317 ft 132 kts 329°
2026-05-04 15:53 53.65183 9.97702 631 ft 152 kts 334°
2026-05-04 15:53 53.66184 9.96918 863 ft 171 kts 332°
2026-05-04 15:54 53.67251 9.96009 1372 ft 171 kts 331°
2026-05-04 15:54 53.68289 9.95080 2082 ft 168 kts 329°
2026-05-04 15:54 53.69392 9.94384 2642 ft 176 kts 353°
2026-05-04 15:54 53.70631 9.94512 3218 ft 180 kts 359°
2026-05-04 15:55 53.71893 9.94609 3822 ft 181 kts 358°
2026-05-04 15:55 53.73148 9.94914 4130 ft 189 kts 22°
2026-05-04 15:55 53.74103 9.96485 4517 ft 198 kts 54°
2026-05-04 15:55 53.74769 9.98534 4938 ft 199 kts 62°
2026-05-04 15:56 53.75359 10.00662 5320 ft 201 kts 64°
2026-05-04 15:56 53.75933 10.02823 5710 ft 202 kts 64°
2026-05-04 15:56 53.76517 10.04997 6072 ft 203 kts 64°
2026-05-04 15:56 53.77120 10.07171 6432 ft 205 kts 63°
2026-05-04 15:57 53.77739 10.09355 6797 ft 206 kts 62°
2026-05-04 15:57 53.78373 10.11547 7161 ft 208 kts 62°
2026-05-04 15:57 53.79014 10.13750 7515 ft 210 kts 62°
2026-05-04 15:57 53.79662 10.15971 7864 ft 211 kts 62°
2026-05-04 15:58 53.80319 10.18211 8224 ft 213 kts 63°
2026-05-04 15:58 53.80962 10.20441 8587 ft 215 kts 63°
2026-05-04 15:58 53.81617 10.22726 8944 ft 217 kts 63°
2026-05-04 15:58 53.82279 10.25033 9310 ft 219 kts 63°
2026-05-04 15:59 53.82946 10.27359 9667 ft 220 kts 63°
2026-05-04 15:59 53.83614 10.29701 10008 ft 222 kts 63°
2026-05-04 15:59 53.84287 10.32061 10327 ft 223 kts 63°
2026-05-04 15:59 53.84964 10.34436 10643 ft 224 kts 63°
2026-05-04 16:00 53.85647 10.36827 10955 ft 226 kts 63°
2026-05-04 16:00 53.86330 10.39225 11270 ft 227 kts 63°
2026-05-04 16:00 53.87017 10.41645 11581 ft 228 kts 63°
2026-05-04 16:00 53.87711 10.44079 11894 ft 230 kts 63°
2026-05-04 16:01 53.88404 10.46522 12209 ft 231 kts 63°
2026-05-04 16:01 53.89100 10.48980 12518 ft 232 kts 63°
2026-05-04 16:01 53.89794 10.51421 12817 ft 233 kts 63°
2026-05-04 16:01 53.90496 10.53902 13101 ft 235 kts 63°
2026-05-04 16:02 53.91201 10.56421 13407 ft 236 kts 63°
2026-05-04 16:02 53.91913 10.58943 13707 ft 237 kts 62°
2026-05-04 16:02 53.93348 10.64024 14238 ft 240 kts 62°
2026-05-04 16:03 53.94078 10.66588 14496 ft 241 kts 60°
2026-05-04 16:03 53.95055 10.68880 14728 ft 239 kts 43°
2026-05-04 16:03 53.96215 10.70890 14964 ft 239 kts 40°
2026-05-04 16:03 53.97412 10.72870 15215 ft 240 kts 40°
2026-05-04 16:04 53.98602 10.74887 15479 ft 242 kts 41°
2026-05-04 16:04 54.00927 10.79085 15953 ft 245 kts 43°
2026-05-04 16:04 54.02093 10.81214 16216 ft 246 kts 42°
2026-05-04 16:05 54.03250 10.83320 16454 ft 247 kts 42°
2026-05-04 16:05 54.04429 10.85459 16689 ft 248 kts 42°
2026-05-04 16:05 54.06842 10.89865 16920 ft 262 kts 43°
2026-05-04 16:06 54.08100 10.92172 16944 ft 271 kts 43°
2026-05-04 16:06 54.11652 10.98654 16971 ft 289 kts 43°
2026-05-04 16:07 54.13483 11.02087 16977 ft 296 kts 44°
2026-05-04 16:07 54.17705 11.10015 16973 ft 305 kts 44°
2026-05-04 16:08 54.19143 11.12694 16975 ft 307 kts 43°
2026-05-04 16:08 54.23481 11.20756 16988 ft 310 kts 44°
2026-05-04 16:09 54.26385 11.26213 16973 ft 310 kts 44°
2026-05-04 16:09 54.29302 11.31684 16973 ft 311 kts 44°
2026-05-04 16:10 54.32228 11.37181 16971 ft 312 kts 44°
2026-05-04 16:11 54.36619 11.45462 16974 ft 313 kts 44°
2026-05-04 16:11 54.38091 11.48233 16974 ft 313 kts 44°
2026-05-04 16:12 54.42467 11.56509 16968 ft 313 kts 44°
2026-05-04 16:12 54.46867 11.64836 16975 ft 314 kts 44°
2026-05-04 16:13 54.49800 11.70402 16968 ft 313 kts 44°
2026-05-04 16:13 54.52724 11.75966 16963 ft 313 kts 44°
2026-05-04 16:14 54.55648 11.81533 16962 ft 313 kts 44°
2026-05-04 16:14 54.58549 11.87071 16958 ft 313 kts 44°
2026-05-04 16:15 54.63092 11.95056 16965 ft 307 kts 30°
2026-05-04 16:16 54.66698 11.98926 16961 ft 305 kts 26°
2026-05-04 16:16 54.72044 12.05023 16968 ft 308 kts 29°
2026-05-04 16:17 54.75600 12.09142 16966 ft 308 kts 29°
2026-05-04 16:18 54.80944 12.15335 16956 ft 308 kts 29°
2026-05-04 16:18 54.82702 12.17379 16953 ft 308 kts 29°
2026-05-04 16:19 54.88040 12.23607 16948 ft 308 kts 29°
2026-05-04 16:19 54.91594 12.27773 16962 ft 309 kts 29°
2026-05-04 16:20 54.96946 12.34050 16951 ft 309 kts 29°
2026-05-04 16:20 55.00520 12.38240 16953 ft 310 kts 28°
2026-05-04 16:21 55.05899 12.44516 16946 ft 310 kts 28°
2026-05-04 16:22 55.09478 12.48702 16944 ft 310 kts 28°
2026-05-04 16:22 55.14797 12.54963 16955 ft 292 kts 29°
2026-05-04 16:23 55.19821 12.60956 15288 ft 307 kts 29°
2026-05-04 16:24 55.27515 12.67490 12510 ft 298 kts 10°
2026-05-04 16:25 55.31396 12.69507 11547 ft 285 kts 12°
2026-05-04 16:26 55.38682 12.73689 9684 ft 267 kts 13°
2026-05-04 16:26 55.43895 12.76678 8209 ft 259 kts 13°
2026-05-04 16:27 55.47293 12.78623 7275 ft 255 kts 12°
2026-05-04 16:28 55.51939 12.82547 6317 ft 246 kts 24°
2026-05-04 16:28 55.56444 12.87081 5221 ft 247 kts 25°
2026-05-04 16:29 55.62323 12.92965 3989 ft 239 kts 25°
2026-05-04 16:30 55.66609 12.97231 3114 ft 232 kts 25°
2026-05-04 16:31 55.69486 12.99674 2281 ft 228 kts
2026-05-04 16:31 55.72469 12.95364 2010 ft 180 kts 270°
2026-05-04 16:32 55.72162 12.88595 2006 ft 194 kts 265°
2026-05-04 16:33 55.71805 12.83694 2011 ft 205 kts 263°
2026-05-04 16:33 55.71128 12.78744 2002 ft 214 kts 238°
2026-05-04 16:34 55.68737 12.75519 1849 ft 220 kts 215°
2026-05-04 16:34 55.67496 12.73795 1234 ft 228 kts 220°
2026-05-04 16:35 55.64378 12.69601 539 ft 156 kts 229°
2026-05-04 16:35 55.62443 12.66604 46 ft 115 kts 225°
2026-05-04 16:36 55.61882 12.65728 23 ft 94 kts 221°
2026-05-04 16:36 55.61609 12.65085 20 ft 10 kts 288°
2026-05-04 16:37 55.61639 12.64973 20 ft 0 kts 302°
2026-05-04 16:37 55.61670 12.64910 20 ft 8 kts 310°
2026-05-04 16:38 55.61784 12.64783 20 ft 12 kts 353°
2026-05-04 16:39 55.62087 12.65035 23 ft 13 kts 34°
2026-05-04 16:39 55.62141 12.65099 21 ft 0 kts 33°
2026-05-04 16:40 55.62181 12.65145 22 ft 8 kts 33°
2026-05-04 16:40 55.62271 12.65091 20 ft 8 kts 303°
2026-05-04 16:41 55.62369 12.64819 21 ft 17 kts 301°
2026-05-04 16:41 55.62600 12.64252 20 ft 12 kts 357°
2026-05-04 16:42 55.62724 12.64303 20 ft 2 kts 296°
2026-05-04 16:43 55.62727 12.64293 20 ft 1 kts 299°
2026-05-04 16:43 55.62732 12.64278 20 ft 1 kts 302°
2026-05-04 16:43 55.62733 12.64275 20 ft 1 kts 303°
2026-05-04 16:44 55.62738 12.64263 22 ft 0 kts 302°